Location: Bruderhein
(53.8035°N, 112.9265°W)
Time: 07:26:24
(UTC+00:00)

TIGRISAT - Pass Details

Date: 07 April 2023
Orbit: 599 x 682 km, 97.7° (Epoch: 03 June)

Event Time Altitude Azimuth Distance (km) Brightness Sun altitude
Rises 10:26:20 0° 112° (ESE) 2,991 ? -19.4°
Reaches altitude 10° 10:29:14 10° 92° (E) 2,098 ? -19.1°
Maximum altitude 10:32:04 16° 53° (NE) 1,721 ? -18.8°
Drops below altitude 10° 10:34:56 10° 15° (NNE) 2,129 ? -18.5°
Sets 10:37:55 0° 356° (N) 3,057 ? -18.2°
